TimeCST,TemperatureF,Dew PointF,Humidity,Sea Level PressureIn,VisibilityMPH,Wind Direction,Wind SpeedMPH,Gust SpeedMPH,PrecipitationIn,Events,Conditions,WindDirDegrees,DateUTC
12:52 AM,41.0,30.9,67,29.97,10.0,South,5.8,-,N/A,,Clear,170,2014-03-08 06:52:00
1:52 AM,41.0,30.9,67,29.98,10.0,SSE,9.2,-,N/A,,Clear,150,2014-03-08 07:52:00
2:52 AM,44.1,32.0,63,29.99,10.0,Variable,4.6,-,N/A,,Clear,0,2014-03-08 08:52:00
3:52 AM,41.0,32.0,70,29.99,10.0,NW,3.5,-,N/A,,Clear,310,2014-03-08 09:52:00
4:52 AM,37.0,32.0,82,30.01,9.0,North,6.9,-,N/A,,Clear,360,2014-03-08 10:52:00
5:52 AM,37.0,33.1,86,30.06,4.0,North,9.2,-,N/A,,Scattered Clouds,350,2014-03-08 11:52:00
6:06 AM,37.0,33.1,86,30.07,4.0,North,11.5,-,N/A,,Mostly Cloudy,350,2014-03-08 12:06:00
6:17 AM,37.0,33.1,86,30.08,4.0,NNW,15.0,-,N/A,,Overcast,340,2014-03-08 12:17:00
6:52 AM,36.0,33.1,89,30.10,3.0,North,9.2,-,N/A,,Overcast,350,2014-03-08 12:52:00
7:09 AM,36.0,33.1,89,30.07,1.0,NNE,10.4,-,0.00,Rain,Rain,30,2014-03-08 13:09:00
7:52 AM,36.0,34.0,93,30.12,1.0,North,8.1,-,0.02,,Overcast,360,2014-03-08 13:52:00
8:52 AM,36.0,33.1,89,30.16,1.0,North,10.4,-,0.00,,Overcast,360,2014-03-08 14:52:00
9:44 AM,34.0,32.0,92,30.15,1.0,North,15.0,-,0.00,Rain,Light Rain,360,2014-03-08 15:44:00
9:52 AM,34.0,32.0,92,30.16,1.0,North,12.7,-,0.00,,Overcast,360,2014-03-08 15:52:00
9:59 AM,34.0,32.0,92,30.14,2.5,North,13.8,-,N/A,,Overcast,360,2014-03-08 15:59:00
10:18 AM,34.0,32.0,92,30.15,2.5,North,13.8,-,0.00,Rain,Light Rain,360,2014-03-08 16:18:00
10:26 AM,34.0,32.0,92,30.16,1.8,North,12.7,-,0.00,Rain,Light Rain,360,2014-03-08 16:26:00
10:50 AM,33.8,32.0,93,30.15,2.0,NNE,15.0,-,0.00,Rain,Light Rain,20,2014-03-08 16:50:00
10:52 AM,34.0,32.0,92,30.17,2.5,North,15.0,-,0.00,Rain,Light Rain,10,2014-03-08 16:52:00
10:59 AM,34.0,32.0,92,30.15,1.5,NNE,16.1,-,0.00,Rain,Light Rain,20,2014-03-08 16:59:00
11:49 AM,33.8,32.0,93,30.17,2.5,North,12.7,-,0.00,,Overcast,10,2014-03-08 17:49:00
11:52 AM,34.0,30.9,89,30.20,2.5,North,12.7,-,0.00,,Overcast,10,2014-03-08 17:52:00
12:52 PM,34.0,32.0,92,30.20,2.0,North,10.4,-,0.00,,Overcast,350,2014-03-08 18:52:00
1:15 PM,34.0,32.0,92,30.18,3.0,North,10.4,-,0.00,Rain,Light Rain,350,2014-03-08 19:15:00
1:28 PM,34.0,32.0,92,30.19,2.5,NNW,10.4,-,0.00,Rain,Light Rain,340,2014-03-08 19:28:00
1:52 PM,34.0,32.0,92,30.21,2.5,NNW,11.5,-,0.01,Rain,Light Rain,340,2014-03-08 19:52:00
2:02 PM,34.0,32.0,92,30.19,3.0,North,10.4,-,0.01,Rain,Light Rain,350,2014-03-08 20:02:00
2:52 PM,35.1,32.0,89,30.22,3.0,North,10.4,-,0.02,,Overcast,350,2014-03-08 20:52:00
3:01 PM,34.0,32.0,92,30.19,2.5,North,11.5,-,0.00,Rain,Light Rain,350,2014-03-08 21:01:00
3:11 PM,34.0,32.0,92,30.20,3.0,North,9.2,-,0.00,Rain,Light Rain,350,2014-03-08 21:11:00
3:52 PM,34.0,32.0,92,30.24,2.5,NNW,9.2,-,0.00,,Overcast,340,2014-03-08 21:52:00
4:52 PM,34.0,32.0,92,30.23,2.0,North,8.1,-,0.03,Rain,Light Rain,10,2014-03-08 22:52:00
5:04 PM,34.0,32.0,92,30.21,1.8,North,8.1,-,0.02,Rain,Rain,10,2014-03-08 23:04:00
5:34 PM,34.0,32.0,92,30.21,2.0,North,9.2,-,0.07,Rain,Light Rain,10,2014-03-08 23:34:00
5:49 PM,33.8,32.0,93,30.21,2.0,North,10.4,-,0.08,Rain,Light Rain,10,2014-03-08 23:49:00
5:52 PM,34.0,32.0,92,30.24,2.0,North,11.5,-,0.08,Rain,Light Rain,360,2014-03-08 23:52:00
6:07 PM,34.0,32.0,92,30.23,3.0,North,9.2,-,0.00,,Overcast,360,2014-03-09 00:07:00
6:38 PM,34.0,32.0,92,30.24,2.5,North,10.4,-,0.04,Rain,Light Rain,360,2014-03-09 00:38:00
6:48 PM,33.8,32.0,93,30.25,3.0,North,9.2,-,0.04,Rain,Light Rain,350,2014-03-09 00:48:00
6:52 PM,34.0,32.0,92,30.28,3.0,North,6.9,-,0.04,Rain,Light Rain,350,2014-03-09 00:52:00
7:14 PM,34.0,32.0,92,30.26,2.5,North,9.2,-,0.01,Rain,Rain,360,2014-03-09 01:14:00
7:24 PM,34.0,32.0,92,30.25,2.5,North,8.1,-,0.03,Rain,Light Rain,10,2014-03-09 01:24:00
7:52 PM,34.0,32.0,92,30.29,2.5,NNE,6.9,-,0.06,Rain,Light Rain,20,2014-03-09 01:52:00
8:27 PM,34.0,33.1,96,30.27,3.0,North,6.9,-,0.01,,Overcast,360,2014-03-09 02:27:00
8:37 PM,34.0,32.0,92,30.27,2.5,North,5.8,-,0.01,,Overcast,360,2014-03-09 02:37:00
8:52 PM,34.0,33.1,96,30.30,2.5,North,5.8,-,0.01,,Overcast,360,2014-03-09 02:52:00
9:31 PM,34.0,32.0,92,30.28,3.0,North,5.8,-,N/A,,Overcast,350,2014-03-09 03:31:00
9:52 PM,34.0,32.0,92,30.31,3.0,NNE,4.6,-,N/A,,Overcast,20,2014-03-09 03:52:00
10:28 PM,34.0,32.0,92,30.29,2.5,North,4.6,-,N/A,,Overcast,350,2014-03-09 04:28:00
10:52 PM,33.1,30.9,92,30.32,2.5,North,4.6,-,N/A,,Overcast,350,2014-03-09 04:52:00
11:31 PM,33.1,32.0,96,30.28,2.0,North,4.6,-,N/A,,Overcast,10,2014-03-09 05:31:00
11:52 PM,34.0,32.0,92,30.31,2.5,NNE,4.6,-,N/A,,Overcast,20,2014-03-09 05:52:00